SCP
-0 -0 0 -0 0 0 0 0 0 0 0 0 0 0 0 0 0 0 -0 -0 0 -0 -0 -0 -0 -0 -0 -0 -0 0 -0 0 0 0 0 0 0 -0 -0 -0 -0 -0 -0 -0 0 0 0 0 0
-0 0 0 0 0 0 0 0 0 0 0 0 0 0 0 0 0 -0 -0 -0 0 -0 -0 -0 -0 -0 -0 -0 0 0 -0 0 -0 -0 0 -0 -0 -0 -0 -0 -0 -0 -0 -0 0 0 0 0 -0
0 0 0 0 0 0 0 0 0 0 0 0 0 0 0 0 0 0 0 0 0 0 0 0 0 -0 -0 -0 -0 0 0 -0 -0 0 0 -0 -0 -0 -0 -0 -0 -0 -0 -0 -0 0 0 0 -0
0 0 0 0 0 0 0 0 0 0 0 0 0 0 0 0 0 0 0 0 0 0 0 0 0 0 0 0 0 0 0 0 0 0 0 -0 -0 -0 -0 -0 0 -0 -0 -0 -0 0 0 0 0
0 0 0 0 0 0 0 0 0 0 0 0 0 0 0 0 0 0 0 0 0 0 0 0 0 0 0 0 0 0 0 0 0 0 0 -0 -0 -0 -0 -0 -0 -0 -0 -0 0 0 0 0 0
0 0 0 0 0 0 0 0 0 0 0 0 0 0 0 0 -0 0 0 -0 0 0 0 0 0 0 0 0 0 0 0 0 0 0 0 0 -0 0 0 0 0 0 0 0 0 0 0 0 0
0 0 0 0 0 0 0 0 0 0 0 0 0 0 0 -0 -0 0 0 0 0 0 0 0 0 0 0 0 0 0 0 0 0 0 0 0 0 0 0 0 0 0 0 0 0 0 0 0 0
0 0 0 0 0 0 0 0 0 0 0 0 0 0 0 0 0 0 0 0 0 0 0 0 0 0 0 0 0 0 0 0 0 0 0 0 0 0 0 0 0 0 0 0 0 0 0 0 0
0 0 0 0 0 0 0 0 0 0 0 0 0 0 0 0 0 0 0 0 0 0 0 0 0 0 0 0 0 0 0 0 0 0 0 0 0 0 0 0 0 0 0 0 0 0 0 0 0
0 0 0 0 0 0 0 0 0 0 0 0 0 0 0 0 0 0 0 0 0 0 0 0 0 0 0 0 0 0 0 0 0 0 0 0 0 0 0 0 0 0 0 0 0 0 0 0 0
-0 0 0 0 0 0 0 0 0 0 0 0 0 0 0 0 0 0 0 0 0 0 0 0 0 0 0 0 0 0 0 0 0 0 0 0 0 0 0 0 0 0 0 0 0 0 0 0 0
0 0 0 0 0 0 0 0 0 0 0 0 0 0 0 0 0 0 0 0 0 0 0 0 0 0 0 0 0 0 0 0 0 0 0 0 0 0 0 0 0 0 0 0 0 0 0 0 0
0 0 0 0 0 0 0 0 0 0 0 0 0 0 0 0 0 0 0 0 0 0 0 0 0 0 0 0 0 0 0 0 0 0 0 0 0 0 0 0 0 0 0 0 0 0 0 0 0
0 0 0 0 0 0 0 0 0 0 0 0 0 0 0 0 0 0 0 0 0 0 0 0 0 0 0 0 0 0 0 0 0 0 0 0 0 0 0 0 0 0 0 0 0 0 0 0 0
0 0 0 0 0 0 0 0 0 0 0 0 0 0 0 0 0 0 0 0 0 0 0 0 0 0 0 0 0 0 0 0 0 0 0 0 0 0 0 0 0 0 0 0 0 0 0 0 0
0 0 0 0 0 0 0 0 0 0 0 0 0 0 0 0 0 0 0 0 0 0 0 0 0 0 0 0 0 0 0 0 0 0 0 0 0 0 0 0 0 0 0 0 0 0 0 0 0
0 0 0 0 0 0 0 0 0 0 0 -0 -0 -0 0 0 0 0 0 0 0 0 0 0 0 0 0 0 0 0 0 0 0 0 0 0 0 0 0 0 0 0 0 0 0 0 0 0 0
0 0 0 0 0 0 0 0 0 0 0 -0 -0 -0 0 0 0 0 0 0 0 0 0 0 0 0 0 0 0 0 0 0 0 0 0 0 0 0 0 0 0 0 0 0 0 0 0 0 0
0 0 0 0 0 0 0 0 0 0 0 0 -0 -0 -0 0 0 0 0 0 0 0 0 0 0 0 0 0 0 0 0 0 0 0 0 0 0 0 0 0 0 0 0 0 0 0 0 0 0
0 0 0 0 0 0 0 0 0 0 0 0 -0 -0 -0 0 0 0 0 0 0 0 0 0 0 0 1 0 0 0 0 0 0 0 0 0 0 0 0 0 0 0 0 0 0 0 0 0 0
0 0 0 0 0 0 0 0 0 0 0 0 0 -0 0 0 0 0 0 0 0 0 0 0 0 0 1 0 0 0 0 0 0 0 0 0 0 0 0 0 0 0 0 0 0 0 0 0 0
0 0 0 0 0 0 0 0 0 0 0 0 0 -0 0 0 -0 -0 0 0 0 0 0 0 0 1 1 0 0 0 0 0 0 0 0 0 0 0 0 0 0 0 0 0 0 0 0 0 0
0 0 0 0 0 0 0 0 0 0 -0 -0 0 0 0 -0 0 -0 0 0 0 0 0 0 0 1 1 1 0 0 0 0 0 0 0 0 0 0 0 0 0 0 0 0 0 0 0 0 0
0 0 0 0 0 0 0 0 0 0 0 -0 0 -0 0 -0 0 0 0 0 0 0 0 1 0 1 1 0 0 0 0 0 0 0 0 0 0 0 0 0 0 0 0 0 0 0 0 0 0
0 0 0 0 0 0 0 0 0 0 0 0 0 0 -0 0 0 0 0 -0 0 0 0 1 1 1 1 0 0 0 0 0 0 0 0 0 0 0 0 0 0 0 0 0 0 0 0 0 0
0 0 0 0 0 0 0 0 0 0 0 0 0 0 -0 0 0 0 0 -0 -0 0 0 0 0 0 0 0 0 0 0 0 0 0 0 0 0 0 0 0 0 0 0 0 0 0 0 0 0
0 0 0 0 0 0 0 0 0 -0 0 -0 0 0 0 0 0 0 0 -0 -0 0 0 0 0 0 0 0 0 0 0 0 0 0 0 0 0 0 0 0 0 0 0 0 0 0 0 0 0
0 0 0 0 0 0 0 0 0 0 0 -0 -0 0 0 0 -0 0 0 -0 -0 -0 0 0 0 0 0 0 0 0 0 0 0 0 0 0 0 0 0 0 0 0 0 0 0 0 -0 0 0
0 0 0 0 0 0 0 0 0 0 0 0 0 0 0 0 -0 -0 0 0 -0 -0 0 0 0 0 0 0 0 0 0 0 0 0 0 0 0 0 0 0 0 0 0 0 0 0 0 0 0
0 0 0 0 0 0 0 0 0 0 0 0 0 0 0 -0 0 0 -0 -0 -0 -0 -0 0 0 0 0 0 0 0 0 0 0 0 0 0 0 0 0 0 0 0 0 0 0 0 0 0 0
Wind_Speed_500mb
12 13 15 7 9 7 7 9 5 17 2 12 7 7 10 6 10 8 14 18 32 49 48 46 39 38 35 30 29 32 32 30 26 27 35 38 31 30 25 18 17 12 4 6 1 11 15 18 20
7 6 6 3 7 8 11 10 17 18 13 10 5 9 4 9 9 15 10 19 36 47 44 44 42 37 30 29 28 30 30 30 26 35 45 33 24 25 24 23 16 10 9 7 8 14 16 18 18
2 2 3 2 1 5 8 17 19 20 11 11 1 6 7 13 14 11 17 19 40 44 42 42 42 36 30 29 29 28 28 27 32 48 40 33 32 25 25 18 13 14 10 10 13 16 14 14 14
7 3 4 7 2 12 10 21 25 25 10 30 16 5 10 22 20 18 16 14 37 40 40 43 39 33 30 29 32 31 28 28 40 43 34 29 32 22 22 16 17 15 10 16 16 16 13 12 10
10 2 6 5 4 10 16 31 20 25 15 34 27 14 11 32 37 21 12 13 33 39 37 40 37 34 31 33 36 33 31 30 33 36 29 32 25 19 15 13 14 15 14 18 17 15 13 11 8
5 1 5 8 5 8 14 38 18 31 24 31 26 24 11 38 48 25 10 11 27 40 36 38 36 33 32 37 42 38 35 31 33 35 37 30 22 16 10 7 14 16 17 18 17 15 13 9 6
6 1 5 4 5 6 15 35 25 32 24 35 37 13 7 60 61 25 14 14 26 32 35 33 36 36 34 41 42 39 35 30 28 30 43 34 22 17 13 11 14 15 15 16 15 14 12 10 8
6 3 6 9 8 8 23 24 17 30 13 35 34 17 22 65 53 30 16 18 26 37 36 35 32 35 38 43 38 32 31 29 24 22 34 34 26 22 18 16 17 18 17 17 16 15 13 12 12
9 2 8 8 10 10 29 24 23 26 21 7 22 23 35 48 45 32 17 21 28 39 40 36 33 34 36 42 41 36 33 29 27 27 31 32 29 24 20 21 19 19 18 18 18 17 15 14 15
12 7 10 11 13 17 25 24 24 17 21 15 41 38 44 46 44 35 23 26 29 38 42 40 40 35 38 47 40 41 42 39 35 35 33 30 27 26 25 24 22 21 21 20 19 17 17 17 18
14 10 7 14 15 14 12 15 16 23 12 31 56 64 59 54 45 37 33 29 35 38 45 45 44 44 47 50 50 48 45 43 39 38 37 31 27 25 25 25 24 23 22 22 21 19 19 19 19
13 16 14 11 15 10 15 23 29 11 13 41 53 54 54 51 46 42 38 33 35 40 45 46 45 54 52 49 60 59 54 45 43 45 42 34 28 24 24 27 26 23 21 23 23 24 23 21 19
18 10 17 13 19 21 27 18 10 22 44 51 49 51 49 49 48 44 41 34 30 41 47 48 45 51 53 55 52 64 59 51 48 46 44 38 31 26 27 26 28 25 24 25 26 27 26 24 21
8 12 13 20 24 8 32 12 12 37 45 53 55 52 50 47 47 49 40 37 29 32 46 52 52 50 54 54 56 57 58 54 50 52 49 42 36 31 31 32 32 31 28 28 27 27 27 25 25
10 13 10 34 24 15 39 21 25 39 46 53 63 57 51 49 48 45 45 45 40 34 38 53 55 52 60 59 58 56 58 59 56 58 53 47 41 34 31 32 36 34 32 30 29 27 26 25 25
8 7 5 17 31 14 26 15 34 47 50 61 68 64 59 55 52 49 48 46 43 43 38 45 54 60 60 66 61 54 59 62 59 60 58 49 45 39 35 34 34 34 35 34 31 30 29 28 28
17 9 10 4 13 18 19 12 36 46 49 53 61 64 62 62 55 53 53 52 46 46 45 41 55 61 62 66 62 59 61 65 64 64 63 53 49 43 40 39 36 35 38 37 34 33 32 27 26
7 7 1 6 14 19 13 15 25 45 48 57 57 62 65 65 61 61 59 54 52 47 48 44 50 60 56 63 68 62 64 67 68 70 62 52 51 47 45 44 39 38 42 42 41 38 33 32 26
14 8 2 4 1 14 10 9 25 42 50 61 61 59 64 67 66 59 59 55 49 48 48 49 47 59 59 65 69 70 64 60 60 60 60 53 53 51 48 48 46 43 45 44 41 39 38 36 33
9 6 11 7 7 10 11 11 8 39 45 50 56 64 71 75 67 67 64 60 47 44 47 48 48 54 65 61 67 67 60 55 52 53 54 53 53 50 48 43 45 47 46 45 44 45 43 40 30
11 8 5 8 16 4 20 10 2 32 45 55 55 56 59 68 75 68 71 60 53 41 50 48 49 54 56 58 58 67 63 55 54 58 53 50 47 48 53 48 47 48 49 49 49 49 47 41 34
6 6 7 8 10 3 11 7 6 35 42 57 66 65 65 67 66 76 77 61 44 35 46 46 46 52 54 45 57 62 72 59 55 54 53 53 52 50 51 51 53 51 53 54 53 52 54 52 53
7 2 2 1 4 6 5 8 8 35 45 49 65 72 72 70 74 75 81 61 35 23 34 36 39 46 48 40 46 60 66 56 58 59 63 59 59 64 67 65 62 62 60 58 59 57 58 63 63
3 10 6 2 3 4 5 7 7 24 32 43 65 72 78 82 82 85 77 53 25 6 17 22 32 36 41 35 39 48 47 54 49 50 40 34 45 49 54 61 65 66 73 74 68 66 66 68 72
1 6 2 3 3 4 2 7 6 31 34 39 54 66 71 77 82 82 79 73 40 5 9 16 26 31 28 35 30 34 35 28 19 27 15 19 10 5 13 21 32 39 41 65 67 61 40 51 42
8 5 4 5 4 8 5 5 6 28 36 47 51 57 71 84 93 90 81 79 68 40 13 17 26 31 30 32 27 20 15 17 17 22 28 29 34 37 33 43 42 43 41 41 55 52 55 59 51
5 7 4 4 2 6 4 2 5 35 35 50 57 65 75 88 86 94 91 76 77 67 55 48 43 44 41 39 37 27 30 38 47 42 34 38 43 31 23 17 17 24 46 45 43 37 54 56 58
5 13 4 3 3 7 3 4 9 34 36 38 49 58 64 78 88 92 96 79 67 68 64 62 60 56 52 49 46 43 37 39 37 37 42 50 55 49 35 22 13 23 36 48 52 51 50 49 45
5 6 4 3 3 5 8 2 6 19 23 28 42 46 52 64 72 74 85 80 78 66 74 71 74 72 68 64 57 50 48 47 54 58 53 48 56 61 51 40 34 37 39 32 27 26 25 20 23
3 5 4 4 6 5 4 4 6 15 20 27 35 42 46 50 50 61 67 66 85 69 74 68 68 65 61 64 66 67 65 56 52 55 49 42 38 39 40 34 29 31 32 28 26 25 20 18 16
Wind_Direction_500mb
294 313 327 332 245 238 123 78 357 352 36 28 353 302 345 332 342 358 323 188 175 175 175 182 184 183 183 191 192 195 194 193 185 173 160 162 157 166 162 176 182 173 248 304 221 127 121 117 116
295 305 334 271 268 239 119 51 21 11 326 304 307 294 312 46 14 335 23 180 176 176 175 179 184 185 189 189 193 191 183 182 182 170 160 166 175 180 192 213 223 252 271 258 182 146 129 125 126
274 131 242 307 323 319 90 16 341 349 21 11 310 19 14 12 10 357 337 187 173 175 175 185 185 189 190 188 188 182 176 172 166 155 162 174 179 192 208 216 225 247 244 197 174 153 138 128 125
127 98 85 250 286 52 42 9 336 345 20 16 340 91 71 17 342 332 335 206 180 178 179 190 186 190 189 184 173 177 170 169 164 163 170 184 190 191 211 227 232 232 223 182 170 160 152 143 136
117 153 182 203 118 91 47 7 347 360 19 10 353 9 75 9 355 346 319 208 182 186 183 190 192 195 191 183 177 182 181 174 178 182 176 184 195 203 218 211 212 205 179 172 169 165 169 168 163
106 204 181 221 124 68 43 2 353 1 357 0 7 347 75 10 356 341 307 208 194 192 186 191 196 201 195 186 180 185 191 198 198 203 204 201 215 212 206 209 187 191 179 172 173 173 180 192 207
99 216 82 114 93 108 7 350 29 351 1 3 342 1 322 349 354 329 288 226 203 193 190 192 200 202 197 188 187 190 196 201 200 199 206 206 212 223 243 227 200 194 189 186 187 193 203 214 231
65 80 105 35 42 78 7 357 1 8 2 344 19 14 338 336 347 342 298 236 207 199 196 196 198 200 198 193 191 199 203 195 194 193 194 202 222 241 243 230 213 204 202 203 207 213 223 240 255
35 86 68 55 21 7 359 358 352 335 336 6 16 1 333 340 342 352 297 261 219 211 204 200 200 199 199 196 192 198 206 206 202 196 202 219 233 237 241 230 218 212 212 216 221 228 238 248 261
34 48 54 44 33 2 344 351 332 335 350 343 338 337 336 339 345 340 309 268 238 218 215 217 210 206 203 196 199 201 207 207 208 214 218 226 231 240 236 229 223 217 218 222 229 239 247 255 263
21 59 74 50 31 354 337 340 324 334 10 1 336 328 329 331 331 335 326 290 252 233 227 217 214 215 213 203 199 203 208 210 215 215 221 231 236 240 233 229 223 225 229 236 238 247 254 260 261
105 70 43 26 12 26 348 317 325 14 7 335 325 320 319 320 318 317 323 314 271 249 238 231 220 225 219 215 211 210 212 217 213 212 222 236 235 242 241 233 227 228 237 237 242 252 255 258 254
68 61 72 52 22 20 346 355 7 30 342 340 336 331 328 321 311 305 304 309 290 255 245 233 236 230 226 222 220 214 215 216 212 220 229 240 241 245 242 238 232 238 248 246 251 257 258 256 253
99 99 119 27 15 6 2 25 26 359 345 343 343 335 327 324 321 310 300 294 293 278 249 242 233 233 229 226 222 219 214 211 212 222 232 242 245 253 249 242 239 244 250 250 255 263 256 252 254
93 105 116 28 11 6 344 64 21 351 347 346 345 339 332 323 320 314 308 291 283 274 265 249 240 240 230 232 227 223 216 213 217 221 232 239 245 252 253 248 245 245 246 250 257 258 252 252 257
67 85 32 28 9 342 338 55 9 355 351 349 346 342 336 330 322 315 308 299 279 266 261 250 250 244 239 233 228 223 219 218 221 223 231 240 241 248 251 251 248 245 246 250 254 250 253 254 259
35 78 18 28 35 345 8 25 354 358 356 353 350 343 335 329 330 323 312 301 283 261 253 248 243 245 244 232 232 224 224 223 224 228 233 237 241 245 251 251 249 246 246 249 248 247 250 253 261
100 110 83 321 9 355 34 44 11 9 2 356 350 346 337 330 327 328 321 305 292 261 245 243 239 241 243 240 230 231 228 227 229 231 234 238 241 245 249 251 251 251 246 246 247 249 251 254 258
123 135 37 252 78 333 343 317 15 12 6 358 353 346 340 331 325 327 327 316 297 268 240 238 229 235 237 239 229 229 230 231 231 235 238 239 244 246 248 251 250 247 246 248 249 249 249 253 256
124 107 16 263 279 319 324 288 11 20 8 359 351 349 343 337 332 331 328 322 301 274 240 235 228 228 232 232 238 231 231 237 234 232 235 239 243 246 242 253 254 248 249 250 249 249 251 253 246
78 71 30 309 313 230 310 220 331 10 6 357 356 350 342 336 330 330 332 324 307 277 242 224 227 225 224 229 228 233 233 238 234 233 231 234 236 244 242 247 255 257 254 254 253 252 252 250 252
112 119 345 303 324 359 359 300 15 354 2 358 349 349 342 336 334 332 339 329 311 280 241 219 223 219 227 227 227 233 229 232 236 235 231 234 238 240 239 247 253 259 256 255 256 256 254 254 251
87 335 306 237 333 314 50 280 26 0 355 348 344 347 342 337 337 336 333 329 319 300 238 220 212 212 220 221 228 238 239 236 239 239 234 235 241 238 242 242 245 249 254 259 259 261 259 258 258
11 134 123 181 259 229 28 327 43 9 348 344 340 340 342 339 340 343 343 351 346 309 203 213 211 204 207 217 226 238 243 241 254 237 224 233 249 252 251 253 248 251 253 254 254 258 261 265 268
243 169 229 208 238 321 337 268 44 11 358 343 334 339 345 342 346 355 355 6 19 66 175 190 195 190 181 197 213 237 245 243 246 252 285 162 120 85 212 242 243 250 261 252 254 258 256 242 251
41 19 49 293 292 315 330 279 78 9 352 346 344 349 359 357 3 359 6 13 39 59 110 141 144 146 162 176 173 183 177 157 153 141 148 106 97 86 84 100 92 93 90 109 110 104 100 94 92
129 69 34 110 49 273 268 201 209 352 356 352 353 357 359 2 359 6 19 36 49 69 91 110 127 134 142 142 141 143 135 124 120 123 120 122 124 123 114 96 70 57 62 83 65 72 72 77 75
19 147 138 81 314 277 241 264 340 343 341 345 350 354 355 10 15 24 23 35 59 75 80 100 105 110 113 116 113 106 101 101 103 106 117 107 95 96 97 81 70 63 76 68 70 77 79 78 81
167 150 101 79 271 296 317 89 354 335 337 337 342 354 358 13 14 25 35 39 45 70 85 88 91 93 94 98 100 98 99 108 103 96 85 80 86 86 81 87 84 83 88 80 72 71 83 79 91
318 135 177 203 180 246 287 284 63 354 352 349 345 355 1 5 14 28 44 36 46 41 61 81 90 91 86 92 98 100 96 90 92 93 87 84 89 85 83 93 85 89 92 88 85 84 87 91 106
Wind_Speed_850mb
12 13 15 7 9 7 7 9 5 17 2 12 7 7 10 6 10 8 14 18 32 49 48 46 39 38 35 30 29 32 32 30 26 27 35 38 31 30 25 18 17 12 4 6 1 11 15 18 20
7 6 6 3 7 8 11 10 17 18 13 10 5 9 4 9 9 15 10 19 36 47 44 44 42 37 30 29 28 30 30 30 26 35 45 33 24 25 24 23 16 10 9 7 8 14 16 18 18
2 2 3 2 1 5 8 17 19 20 11 11 1 6 7 13 14 11 17 19 40 44 42 42 42 36 30 29 29 28 28 27 32 48 40 33 32 25 25 18 13 14 10 10 13 16 14 14 14
7 3 4 7 2 12 10 21 25 25 10 30 16 5 10 22 20 18 16 14 37 40 40 43 39 33 30 29 32 31 28 28 40 43 34 29 32 22 22 16 17 15 10 16 16 16 13 12 10
10 2 6 5 4 10 16 31 20 25 15 34 27 14 11 32 37 21 12 13 33 39 37 40 37 34 31 33 36 33 31 30 33 36 29 32 25 19 15 13 14 15 14 18 17 15 13 11 8
5 1 5 8 5 8 14 38 18 31 24 31 26 24 11 38 48 25 10 11 27 40 36 38 36 33 32 37 42 38 35 31 33 35 37 30 22 16 10 7 14 16 17 18 17 15 13 9 6
6 1 5 4 5 6 15 35 25 32 24 35 37 13 7 60 61 25 14 14 26 32 35 33 36 36 34 41 42 39 35 30 28 30 43 34 22 17 13 11 14 15 15 16 15 14 12 10 8
6 3 6 9 8 8 23 24 17 30 13 35 34 17 22 65 53 30 16 18 26 37 36 35 32 35 38 43 38 32 31 29 24 22 34 34 26 22 18 16 17 18 17 17 16 15 13 12 12
9 2 8 8 10 10 29 24 23 26 21 7 22 23 35 48 45 32 17 21 28 39 40 36 33 34 36 42 41 36 33 29 27 27 31 32 29 24 20 21 19 19 18 18 18 17 15 14 15
12 7 10 11 13 17 25 24 24 17 21 15 41 38 44 46 44 35 23 26 29 38 42 40 40 35 38 47 40 41 42 39 35 35 33 30 27 26 25 24 22 21 21 20 19 17 17 17 18
14 10 7 14 15 14 12 15 16 23 12 31 56 64 59 54 45 37 33 29 35 38 45 45 44 44 47 50 50 48 45 43 39 38 37 31 27 25 25 25 24 23 22 22 21 19 19 19 19
13 16 14 11 15 10 15 23 29 11 13 41 53 54 54 51 46 42 38 33 35 40 45 46 45 54 52 49 60 59 54 45 43 45 42 34 28 24 24 27 26 23 21 23 23 24 23 21 19
18 10 17 13 19 21 27 18 10 22 44 51 49 51 49 49 48 44 41 34 30 41 47 48 45 51 53 55 52 64 59 51 48 46 44 38 31 26 27 26 28 25 24 25 26 27 26 24 21
8 12 13 20 24 8 32 12 12 37 45 53 55 52 50 47 47 49 40 37 29 32 46 52 52 50 54 54 56 57 58 54 50 52 49 42 36 31 31 32 32 31 28 28 27 27 27 25 25
10 13 10 34 24 15 39 21 25 39 46 53 63 57 51 49 48 45 45 45 40 34 38 53 55 52 60 59 58 56 58 59 56 58 53 47 41 34 31 32 36 34 32 30 29 27 26 25 25
8 7 5 17 31 14 26 15 34 47 50 61 68 64 59 55 52 49 48 46 43 43 38 45 54 60 60 66 61 54 59 62 59 60 58 49 45 39 35 34 34 34 35 34 31 30 29 28 28
17 9 10 4 13 18 19 12 36 46 49 53 61 64 62 62 55 53 53 52 46 46 45 41 55 61 62 66 62 59 61 65 64 64 63 53 49 43 40 39 36 35 38 37 34 33 32 27 26
7 7 1 6 14 19 13 15 25 45 48 57 57 62 65 65 61 61 59 54 52 47 48 44 50 60 56 63 68 62 64 67 68 70 62 52 51 47 45 44 39 38 42 42 41 38 33 32 26
14 8 2 4 1 14 10 9 25 42 50 61 61 59 64 67 66 59 59 55 49 48 48 49 47 59 59 65 69 70 64 60 60 60 60 53 53 51 48 48 46 43 45 44 41 39 38 36 33
9 6 11 7 7 10 11 11 8 39 45 50 56 64 71 75 67 67 64 60 47 44 47 48 48 54 65 61 67 67 60 55 52 53 54 53 53 50 48 43 45 47 46 45 44 45 43 40 30
11 8 5 8 16 4 20 10 2 32 45 55 55 56 59 68 75 68 71 60 53 41 50 48 49 54 56 58 58 67 63 55 54 58 53 50 47 48 53 48 47 48 49 49 49 49 47 41 34
6 6 7 8 10 3 11 7 6 35 42 57 66 65 65 67 66 76 77 61 44 35 46 46 46 52 54 45 57 62 72 59 55 54 53 53 52 50 51 51 53 51 53 54 53 52 54 52 53
7 2 2 1 4 6 5 8 8 35 45 49 65 72 72 70 74 75 81 61 35 23 34 36 39 46 48 40 46 60 66 56 58 59 63 59 59 64 67 65 62 62 60 58 59 57 58 63 63
3 10 6 2 3 4 5 7 7 24 32 43 65 72 78 82 82 85 77 53 25 6 17 22 32 36 41 35 39 48 47 54 49 50 40 34 45 49 54 61 65 66 73 74 68 66 66 68 72
1 6 2 3 3 4 2 7 6 31 34 39 54 66 71 77 82 82 79 73 40 5 9 16 26 31 28 35 30 34 35 28 19 27 15 19 10 5 13 21 32 39 41 65 67 61 40 51 42
8 5 4 5 4 8 5 5 6 28 36 47 51 57 71 84 93 90 81 79 68 40 13 17 26 31 30 32 27 20 15 17 17 22 28 29 34 37 33 43 42 43 41 41 55 52 55 59 51
5 7 4 4 2 6 4 2 5 35 35 50 57 65 75 88 86 94 91 76 77 67 55 48 43 44 41 39 37 27 30 38 47 42 34 38 43 31 23 17 17 24 46 45 43 37 54 56 58
5 13 4 3 3 7 3 4 9 34 36 38 49 58 64 78 88 92 96 79 67 68 64 62 60 56 52 49 46 43 37 39 37 37 42 50 55 49 35 22 13 23 36 48 52 51 50 49 45
5 6 4 3 3 5 8 2 6 19 23 28 42 46 52 64 72 74 85 80 78 66 74 71 74 72 68 64 57 50 48 47 54 58 53 48 56 61 51 40 34 37 39 32 27 26 25 20 23
3 5 4 4 6 5 4 4 6 15 20 27 35 42 46 50 50 61 67 66 85 69 74 68 68 65 61 64 66 67 65 56 52 55 49 42 38 39 40 34 29 31 32 28 26 25 20 18 16
Wind_Direction_850mb
294 313 327 332 245 238 123 78 357 352 36 28 353 302 345 332 342 358 323 188 175 175 175 182 184 183 183 191 192 195 194 193 185 173 160 162 157 166 162 176 182 173 248 304 221 127 121 117 116
295 305 334 271 268 239 119 51 21 11 326 304 307 294 312 46 14 335 23 180 176 176 175 179 184 185 189 189 193 191 183 182 182 170 160 166 175 180 192 213 223 252 271 258 182 146 129 125 126
274 131 242 307 323 319 90 16 341 349 21 11 310 19 14 12 10 357 337 187 173 175 175 185 185 189 190 188 188 182 176 172 166 155 162 174 179 192 208 216 225 247 244 197 174 153 138 128 125
127 98 85 250 286 52 42 9 336 345 20 16 340 91 71 17 342 332 335 206 180 178 179 190 186 190 189 184 173 177 170 169 164 163 170 184 190 191 211 227 232 232 223 182 170 160 152 143 136
117 153 182 203 118 91 47 7 347 360 19 10 353 9 75 9 355 346 319 208 182 186 183 190 192 195 191 183 177 182 181 174 178 182 176 184 195 203 218 211 212 205 179 172 169 165 169 168 163
106 204 181 221 124 68 43 2 353 1 357 0 7 347 75 10 356 341 307 208 194 192 186 191 196 201 195 186 180 185 191 198 198 203 204 201 215 212 206 209 187 191 179 172 173 173 180 192 207
99 216 82 114 93 108 7 350 29 351 1 3 342 1 322 349 354 329 288 226 203 193 190 192 200 202 197 188 187 190 196 201 200 199 206 206 212 223 243 227 200 194 189 186 187 193 203 214 231
65 80 105 35 42 78 7 357 1 8 2 344 19 14 338 336 347 342 298 236 207 199 196 196 198 200 198 193 191 199 203 195 194 193 194 202 222 241 243 230 213 204 202 203 207 213 223 240 255
35 86 68 55 21 7 359 358 352 335 336 6 16 1 333 340 342 352 297 261 219 211 204 200 200 199 199 196 192 198 206 206 202 196 202 219 233 237 241 230 218 212 212 216 221 228 238 248 261
34 48 54 44 33 2 344 351 332 335 350 343 338 337 336 339 345 340 309 268 238 218 215 217 210 206 203 196 199 201 207 207 208 214 218 226 231 240 236 229 223 217 218 222 229 239 247 255 263
21 59 74 50 31 354 337 340 324 334 10 1 336 328 329 331 331 335 326 290 252 233 227 217 214 215 213 203 199 203 208 210 215 215 221 231 236 240 233 229 223 225 229 236 238 247 254 260 261
105 70 43 26 12 26 348 317 325 14 7 335 325 320 319 320 318 317 323 314 271 249 238 231 220 225 219 215 211 210 212 217 213 212 222 236 235 242 241 233 227 228 237 237 242 252 255 258 254
68 61 72 52 22 20 346 355 7 30 342 340 336 331 328 321 311 305 304 309 290 255 245 233 236 230 226 222 220 214 215 216 212 220 229 240 241 245 242 238 232 238 248 246 251 257 258 256 253
99 99 119 27 15 6 2 25 26 359 345 343 343 335 327 324 321 310 300 294 293 278 249 242 233 233 229 226 222 219 214 211 212 222 232 242 245 253 249 242 239 244 250 250 255 263 256 252 254
93 105 116 28 11 6 344 64 21 351 347 346 345 339 332 323 320 314 308 291 283 274 265 249 240 240 230 232 227 223 216 213 217 221 232 239 245 252 253 248 245 245 246 250 257 258 252 252 257
67 85 32 28 9 342 338 55 9 355 351 349 346 342 336 330 322 315 308 299 279 266 261 250 250 244 239 233 228 223 219 218 221 223 231 240 241 248 251 251 248 245 246 250 254 250 253 254 259
35 78 18 28 35 345 8 25 354 358 356 353 350 343 335 329 330 323 312 301 283 261 253 248 243 245 244 232 232 224 224 223 224 228 233 237 241 245 251 251 249 246 246 249 248 247 250 253 261
100 110 83 321 9 355 34 44 11 9 2 356 350 346 337 330 327 328 321 305 292 261 245 243 239 241 243 240 230 231 228 227 229 231 234 238 241 245 249 251 251 251 246 246 247 249 251 254 258
123 135 37 252 78 333 343 317 15 12 6 358 353 346 340 331 325 327 327 316 297 268 240 238 229 235 237 239 229 229 230 231 231 235 238 239 244 246 248 251 250 247 246 248 249 249 249 253 256
124 107 16 263 279 319 324 288 11 20 8 359 351 349 343 337 332 331 328 322 301 274 240 235 228 228 232 232 238 231 231 237 234 232 235 239 243 246 242 253 254 248 249 250 249 249 251 253 246
78 71 30 309 313 230 310 220 331 10 6 357 356 350 342 336 330 330 332 324 307 277 242 224 227 225 224 229 228 233 233 238 234 233 231 234 236 244 242 247 255 257 254 254 253 252 252 250 252
112 119 345 303 324 359 359 300 15 354 2 358 349 349 342 336 334 332 339 329 311 280 241 219 223 219 227 227 227 233 229 232 236 235 231 234 238 240 239 247 253 259 256 255 256 256 254 254 251
87 335 306 237 333 314 50 280 26 0 355 348 344 347 342 337 337 336 333 329 319 300 238 220 212 212 220 221 228 238 239 236 239 239 234 235 241 238 242 242 245 249 254 259 259 261 259 258 258
11 134 123 181 259 229 28 327 43 9 348 344 340 340 342 339 340 343 343 351 346 309 203 213 211 204 207 217 226 238 243 241 254 237 224 233 249 252 251 253 248 251 253 254 254 258 261 265 268
243 169 229 208 238 321 337 268 44 11 358 343 334 339 345 342 346 355 355 6 19 66 175 190 195 190 181 197 213 237 245 243 246 252 285 162 120 85 212 242 243 250 261 252 254 258 256 242 251
41 19 49 293 292 315 330 279 78 9 352 346 344 349 359 357 3 359 6 13 39 59 110 141 144 146 162 176 173 183 177 157 153 141 148 106 97 86 84 100 92 93 90 109 110 104 100 94 92
129 69 34 110 49 273 268 201 209 352 356 352 353 357 359 2 359 6 19 36 49 69 91 110 127 134 142 142 141 143 135 124 120 123 120 122 124 123 114 96 70 57 62 83 65 72 72 77 75
19 147 138 81 314 277 241 264 340 343 341 345 350 354 355 10 15 24 23 35 59 75 80 100 105 110 113 116 113 106 101 101 103 106 117 107 95 96 97 81 70 63 76 68 70 77 79 78 81
167 150 101 79 271 296 317 89 354 335 337 337 342 354 358 13 14 25 35 39 45 70 85 88 91 93 94 98 100 98 99 108 103 96 85 80 86 86 81 87 84 83 88 80 72 71 83 79 91
318 135 177 203 180 246 287 284 63 354 352 349 345 355 1 5 14 28 44 36 46 41 61 81 90 91 86 92 98 100 96 90 92 93 87 84 89 85 83 93 85 89 92 88 85 84 87 91 106